logo dgac
Jueves 18 de Julio del 2024
Buscar por aerodromo o helipuerto
Ingrese nombre de aeródromo, localidad o designador OACI:

Aeródromo: Mocopulli (PUB) (SCPQ)

Ubicación: Dalcahue, X Región, Chile (42º 20' 25'' S, 73º 42' 57'' W) Ver ubicación en el mapa

Pistas

Luces
Orientación Dimensión Pendiente Superficie Resistencia APCH THR RWY PAPI
17/35 2000 x 45 m 0,70 ASPH 109 F/D/X/T Sí (3º)
Horas de operación HJ
Elevación 161 m / 528 ft
Otra Información Adm : D.G.A.C
Uso : PUB
Ubicado 6.5 km NW Dalcahue
TEL (065) 2772770 anexo ARO/MET 5206 CEL +56942882537
email : aro.mocopulli@dgac.gob.cl

Otra información ver AIP-Chile Volumen I AD 3.9-4.1-D
CCCM/FCCV Descargar CCCM/FCCV
andera de Chile
Mapa de Mocopulli (PUB) (SCPQ)

Último METAR

METAR SCPQ 181000Z AUTO 22007KT 9999 -SHRA SCT030 04/02 Q1020

Último TAF

No hay tafs registrados para este aeródromo

Últimas fotos cámaras

Imagen aerodromo Mocopulli (PUB) (SCPQ) Norte tomada el 18-07-2024 10:47:49 Imagen aerodromo Mocopulli (PUB) (SCPQ) Sur tomada el 18-07-2024 10:45:51

Último NOTAM

W1592/24 NOTAMN Q)SCTZ/QWULW/IV/BO/AW/000/004/4220S07339W001 A)SCPQ B)2407091430 C)2409022200 D)DLY BTN 1200-2200 E)RPAS FLT ZONE...D... WI: ZONE 1 SECT RURAL TEGUEL 422048S/0733929W RDO 0.22NM INSTRUCTIONS:PUERTO MONTT RDR 119.5MHZ CHILOE TWR 118.4MHZ F)GND G)400FT AGL